Regional Weather Roundup
Issued by NWS

Home | Current Version | Previous Version | Graphics & Text | Print | Product List | Glossary On
Versions: 1 2 3 4 5 6 7 8 9 10 11 12 13 14 15 16 17 18 19 20 21 22 23 24 25 26 27 28 29 30 31 32 33 34 35 36 37 38 39 40 41 42 43 44 45 46 47 48 49 50
000
ASUS43 KMKX 230510
RWRWI

WISCONSIN REGIONAL WEATHER ROUNDUP
NATIONAL WEATHER SERVICE MILWAUKEE/SULLIVAN WI
1100 PM CST THU FEB 22 2018

NOTE: "FAIR" INDICATES FEW OR NO CLOUDS BELOW 12,000 FEET WITH NO
SIGNIFICANT WEATHER AND/OR OBSTRUCTIONS TO VISIBILITY.

WIZ001-002-006>008-014>016-023>028-230600-
NORTHWEST WISCONSIN

CITY           SKY/WX    TMP DP  RH WIND       PRES   REMARKS
SUPERIOR ARPT  LGT SNOW  23  22  96 NE8       30.31F WCI  14
ASHLAND        LGT SNOW  20  18  92 NE3       30.31F FOG
HAYWARD        LGT SNOW  26  23  88 E7        30.23F FOG     WCI  18
SIREN          LGT SNOW  25  24  94 E3        30.24F
CUMBERLAND     SNOW      27  23  86 E5        30.21F VSB 1/2 WCI  21
RICE LAKE      SNOW      26  25  94 E8        30.23F VSB 1/2 WCI  18
CHETEK         LGT SNOW  26  24  93 E7        30.22F WCI  18
LADYSMITH      LGT SNOW  26  24  90 E10       30.25F WCI  17
EAU CLAIRE     FRZ RAIN  27  24  89 E12       30.21F FOG     WCI  17
MENOMONIE      LGT SNOW  27  25  91 E10       30.22F WCI  17
NEW RICHMOND   LGT SNOW  26  22  87 E9        30.22S WCI  16
OSCEOLA        LGT SNOW  26  26 100 E6        30.26S WCI  20
$$

WIZ003>005-009-010-017-018-230600-
NORTH CENTRAL WISCONSIN

CITY           SKY/WX    TMP DP  RH WIND       PRES   REMARKS
MANITOWISH WTR LGT SNOW  23  23 100 SE6       30.27F WCI  16
ARBOR VITAE    LGT SNOW  25  22  91 SE6       30.27F VSB 3/4 WCI  18
WOODRUFF       LGT SNOW  25  22  91 SE6       30.27F VSB 3/4 WCI  18
RHINELANDER    LGT SNOW  24  22  91 E10       30.28F FOG     WCI  14
EAGLE RIVER    LGT SNOW  24  23  96 E7        30.28F WCI  15
LAND O LAKES   LGT SNOW  24  22  91 SE5       30.31F VSB 3/4 WCI  18
PHILLIPS       LGT SNOW  23  23  97 E7        30.24F WCI  15
TOMAHAWK       LGT SNOW  24  21  91 E3        30.27F
MEDFORD        LGT SNOW  23  21  90 E9G21     30.23F WCI  13
MERRILL        LGT SNOW  25  21  86 E5        30.28F WCI  19
$$

WIZ029-030-035-036-043>047-230600-
CENTRAL WISCONSIN

CITY           SKY/WX    TMP DP  RH WIND       PRES   REMARKS
WAUSAU         FLURRIES  25  22  88 E10       30.26F WCI  15
MOSINEE        NOT AVBL
MARSHFIELD     CLOUDY    26  23  88 E13       30.24F WCI  15
STEVENS POINT  MIX PCPN  26  25  97 E13G18    30.30F WCI  14
WAUPACA        LGT RAIN  31  28  87 E6        30.33F WCI  25
WAUTOMA        FLURRIES  29  28  96 E9        30.29  WCI  20
WISC RAPIDS    FRZ RAIN  27  23  85 E15       30.28F FOG     WCI  15
CAMP DOUGLAS   FRZ DRZL  30  30 100 E9        30.25F FOG     WCI  22
$$

WIZ011>013-019>022-031-037>040-048>050-230600-
NORTHEAST WISCONSIN

CITY           SKY/WX    TMP DP  RH WIND       PRES   REMARKS
ANTIGO         LGT SNOW  24  21  88 E14       30.28F WCI  12
SHAWANO        CLOUDY    30  26  83 E7        30.34F WCI  23
OCONTO         CLOUDY    30  26  84 E5        30.37F WCI  25
STURGEON BAY   CLOUDY    33  26  75 E10       30.36F WCI  25
GREEN BAY      CLOUDY    29  25  85 NE8       30.35F WCI  21
MANITOWOC      CLOUDY    34  27  75 E13       30.34F WCI  25
APPLETON       LGT RAIN  30  28  93 E8        30.31F WCI  23
CLINTONVILLE   LGT SNOW  29  25  85 E8        30.33F WCI  21
OSHKOSH        CLOUDY    31  28  89 E7        30.31F WCI  24
$$

WIZ032>034-041-042-053>061-230600-
SOUTHWEST WISCONSIN

CITY           SKY/WX    TMP DP  RH WIND       PRES   REMARKS
LA CROSSE      CLOUDY    32  29  88 SE7       30.21F WCI  26
SPARTA         CLOUDY    30  29  96 E9        30.24F FOG     WCI  21
VIROQUA        CLOUDY    31  31 100 SE13G20   30.20F WCI  21
BOSCOBEL       CLOUDY    34  31  88 VRB5      30.24F WCI  30
PRAIRIE DU CHI LGT SNOW  33  31  94 E13       30.21F WCI  24
PLATTEVILLE    CLOUDY    33  33 100 E14G20    30.22F WCI  23
$$

WIZ056-057-062-063-064-067-068-230600-
SOUTH CENTRAL WISCONSIN

CITY           SKY/WX    TMP DP  RH WIND       PRES   REMARKS
REEDSBURG      CLOUDY    31  31 100 E7        30.26F WCI  24
BARABOO/DELLS  CLOUDY    30  29  96 E8        30.27F FOG     WCI  23
LONE ROCK      FRZ RAIN  32  32 100 E14       30.26F VSB 1   WCI  22
MINERAL POINT  LGT RAIN  34  34 100 E10       30.21F WCI  26
MADISON        CLOUDY    31  30  96 E5        30.28F FOG     WCI  26
MIDDLETON      CLOUDY    32  32  97 E6        30.27F WCI  27
WATERTOWN      CLOUDY    34  31  88 E8        30.27F WCI  27
MONROE         MIX PCPN  32  32 100 E8        30.25F WCI  25
JANESVILLE     CLOUDY    36  36 100 E7        30.27F FOG     WCI  30
$$

WIZ051-052-058>065-066-070>072-230600-
SOUTHEAST WISCONSIN

CITY           SKY/WX    TMP DP  RH WIND       PRES   REMARKS
MILWAUKEE      CLOUDY    36  31  82 E10       30.31F WCI  28
WAUKESHA       CLOUDY    32  28  86 E12       30.30F WCI  23
MILWAUKEE/TIMM CLOUDY    34  28  80 E8        30.31F WCI  27
RACINE         CLOUDY    36  31  82 SE9       30.32F WCI  29
BURLINGTON     CLOUDY    36  31  83 SE6       30.30S WCI  31
KENOSHA        CLOUDY    37  31  78 SE10      30.30F WCI  30
FOND DU LAC    CLOUDY    35  26  69 SE8       30.30F WCI  29
SHEBOYGAN      CLOUDY    34  27  75 SE10      30.33F WCI  26
WEST BEND      CLOUDY    34  30  86 E10       30.30F WCI  26
JUNEAU         CLOUDY    32  28  85 E13       30.29F WCI  23
$$

LSZ147-162-230600-
LAKE SUPERIOR

STATION/POSITION TIME  TEMP    WIND        PRES    WAVE
                       AIR SEA DIR/SP/G            HT/PER
                 (UTC) (F)     (DEG/KT/KT) (MB)    (FT/S)
DEVILS ISLAND    0500   25      80/  5/  6 1028.4F
SAXON HARBOR     0440   24     320/  3/  3 1026.4F
$$

LMZ867-665-643>646-230600-
LAKE MICHIGAN

STATION/POSITION TIME  TEMP    WIND        PRES    WAVE
                       AIR SEA DIR/SP/G            HT/PER
                 (UTC) (F)     (DEG/KT/KT) (MB)    (FT/S)
NORTHPORT PIER   0440   33                 1029.1F
KEWAUNEE LAKESHO 0442   35     120/  9/ 13 1027.7F
SHEBOYGAN LAKESH 0500   35     110/ 12/ 13 1027.9F
PORT WASHINGTON  0430   36     100/ 12/ 14 1028.4F
MILWAUKEE LAKESH 0450   35      80/  6/  7   N/A
KENOSHA   LAKESH 0500   36     160/  5/  8 1026.4
$$

TC  - TEMPERATURE IN CELSIUS
VSB - VISIBILITY IN STATUTE MILES
WCI - WIND CHILL INDEX
HX  - HEAT INDEX





USA.gov is the U.S. government's official web portal to all federal, state and local government web resources and services.